This demonstration page uses our WeatherBlox Daily Observations layout. Learn more.

Left ArrowRight Arrow

Hourly Observations for June 29, 2019

Temp ( °F °C ) Dew Point ( °F °C ) Humidity (%) Winds ( mph kmh ) Pressure ( in mb ) Visibility ( mi km ) Precip ( " mm )
12:59 am 00:59 Partly Cloudy 79 26.1 70 21.1 74 74 W 5 7 30.16 1021 10 16 0.00 0.00
1:59 am 01:59 Partly Cloudy 75 23.9 69 20.6 82 82 SSW 3 6 30.14 1021 9 14 0.00 0.00
2:59 am 02:59 Clear 75 23.9 69 20.6 82 82 SSW 5 7 30.13 1020 9 14 0.00 0.00
3:59 am 03:59 Clear 74 23.3 69 20.6 85 85 SSW 6 9 30.11 1020 9 14 0.00 0.00
4:59 am 04:59 Mostly Cloudy 74 23.3 69 20.6 85 85 SSW 7 11 30.11 1020 9 14 0.00 0.00
5:59 am 05:59 Mostly Cloudy 74 23.3 68 20 82 82 SW 7 11 30.13 1020 9 14 0.00 0.00
6:59 am 06:59 Mostly Cloudy 75 23.9 68 20 79 79 SW 7 11 30.14 1021 9 14 0.00 0.00
7:59 am 07:59 Mostly Cloudy 77 25 68 20 74 74 SW 10 17 30.15 1021 9 14 0.00 0.00
8:59 am 08:59 Mostly Cloudy 80 26.7 68 20 67 67 SW 10 17 30.15 1021 9 14 0.00 0.00
9:59 am 09:59 Mostly Cloudy 83 28.3 69 20.6 63 63 SSW 7 11 30.14 1021 9 14 0.00 0.00
10:59 am 10:59 Mostly Cloudy 86 30 70 21.1 59 59 SSW 10 17 30.13 1020 9 14 0.00 0.00
11:59 am 11:59 Mostly Cloudy 89 31.7 71 21.7 55 55 SW 8 13 30.12 1020 9 14 0.00 0.00
12:59 pm 12:59 Partly Cloudy 90 32.2 70 21.1 52 52 WSW 6 9 30.10 1019 9 14 0.00 0.00
1:59 pm 13:59 Partly Cloudy 93 33.9 69 20.6 46 46 WSW 8 13 30.07 1018 10 16 0.00 0.00
2:59 pm 14:59 Sunny 93 33.9 69 20.6 46 46 W 12 19 30.04 1017 10 16 0.00 0.00
3:59 pm 15:59 Partly Cloudy 93 33.9 68 20 44 44 WSW 8 13 30.02 1017 9 14 0.00 0.00
4:59 pm 16:59 Partly Cloudy 93 33.9 69 20.6 46 46 W 12 19 30.01 1016 9 14 0.00 0.00
5:59 pm 17:59 Mostly Cloudy 92 33.3 69 20.6 47 47 W 9 15 29.98 1015 9 14 0.00 0.00
6:59 pm 18:59 Partly Cloudy 91 32.8 69 20.6 49 49 WSW 6 9 29.99 1016 9 14 0.00 0.00
7:59 pm 19:59 Mostly Cloudy 90 32.2 69 20.6 50 50 VRB 7 11 30.00 1016 10 16 0.00 0.00
8:59 pm 20:59 Mostly Cloudy 87 30.6 69 20.6 55 55 WSW 5 7 30.00 1016 10 16 0.00 0.00
9:59 pm 21:59 Partly Cloudy 82 27.8 69 20.6 65 65 SSW 6 9 30.01 1016 10 16 0.00 0.00
10:59 pm 22:59 Mostly Cloudy 84 28.9 71 21.7 65 65 SSW 9 15 30.00 1016 9 14 0.00 0.00
11:59 pm 23:59 Partly Cloudy 82 27.8 70 21.1 67 67 SW 10 17 30.01 1016 10 16 0.00 0.00

Powered by AerisWeather